SCP
-0 -0 -0 0 -0 -0 -0 -0 -0 -0 -0 -0 -0 -0 -0 -0 -0 0 0 0 0 0 0 0 0 0 0 0 0 0 0 0 0 0 0 0 0 0 0 0 0 0 -0
-0 -0 -0 0 0 -0 -0 -0 -0 -0 -0 -0 -0 -0 -0 0 0 0 0 0 0 0 0 0 0 0 0 0 0 0 0 0 0 0 0 0 0 0 0 0 -0 0 0
-0 -0 -0 0 -0 -0 -0 -0 -0 -0 -0 -0 -0 0 0 0 0 0 0 0 0 0 0 0 0 0 0 0 0 0 0 0 0 0 0 0 0 -0 -0 -0 -0 0 0
-0 -0 0 0 -0 -0 -0 -0 -0 -0 -0 0 0 0 0 0 0 0 0 0 0 0 0 0 0 0 0 0 0 0 0 0 0 0 0 0 0 0 0 -0 0 0 0
-0 -0 -0 -0 -0 -0 -0 -0 0 0 0 0 0 0 0 0 0 0 0 0 0 0 0 0 0 0 0 0 0 0 0 0 0 0 0 0 0 0 0 0 0 0 0
-0 -0 0 -0 -0 -0 -0 -0 0 0 0 0 0 0 0 0 0 0 0 0 0 0 0 0 0 0 0 0 0 0 0 0 0 0 0 0 0 0 0 0 0 0 0
0 -0 -0 -0 -0 -0 -0 0 0 0 0 0 0 0 0 0 0 0 0 0 0 0 0 0 0 0 0 0 0 0 0 1 1 0 0 0 0 0 0 0 0 0 0
-0 -0 0 0 0 0 0 0 0 0 0 0 0 0 0 0 0 0 0 0 0 0 0 0 1 0 0 0 0 0 1 0 0 0 0 0 0 0 0 1 1 0 0
-0 -0 -0 -0 0 0 0 0 0 0 0 0 0 0 0 0 0 0 0 0 0 0 0 0 0 0 0 0 0 0 0 0 0 0 0 0 0 0 0 1 1 1 1
-0 -0 0 0 0 0 0 -0 -0 -0 -0 -0 0 0 0 0 0 0 0 0 0 0 0 0 0 0 0 0 0 0 0 0 0 0 0 0 0 0 0 0 1 1 1
-0 0 0 -0 -0 -0 -0 -0 -0 -0 -0 0 0 0 0 0 0 0 0 0 0 0 0 0 0 0 0 0 0 0 0 0 0 0 0 0 0 0 0 0 0 1 1
-0 -0 -0 -0 -0 -0 -0 -0 0 0 0 0 0 0 0 0 0 0 0 0 0 0 0 0 0 0 0 0 0 0 0 0 0 0 0 0 0 0 0 0 0 0 0
-0 -0 -0 -0 -0 -0 0 0 0 0 0 0 0 0 0 0 0 0 0 0 0 0 0 0 0 0 0 0 0 0 0 0 0 0 0 0 0 0 0 0 0 0 0
0 -0 -0 -0 -0 0 0 0 0 0 0 0 0 0 0 0 0 0 0 0 0 0 0 0 0 0 0 0 0 0 0 0 0 0 0 0 0 0 0 0 0 0 0
0 -0 -0 0 -0 0 0 0 0 0 0 0 0 0 0 0 0 0 0 0 0 0 0 0 0 0 0 0 0 0 0 0 0 0 0 0 0 0 0 0 0 0 0
0 0 0 0 0 0 0 0 0 0 0 0 0 0 0 0 0 0 0 0 0 0 0 0 0 0 0 0 0 0 0 0 0 0 0 0 0 0 0 0 0 0 0
0 0 0 0 0 0 0 0 0 0 0 0 0 0 0 0 0 0 0 0 0 0 0 0 0 0 0 0 0 0 0 0 0 0 0 0 0 0 0 0 0 0 0
0 0 0 0 0 0 0 0 0 0 0 0 0 0 0 0 0 0 0 0 0 0 0 0 0 0 0 0 0 0 0 0 0 0 0 0 0 0 0 0 0 0 0
0 0 0 0 0 0 0 0 0 0 0 0 0 0 0 0 0 0 0 0 0 0 0 0 0 0 0 0 0 0 0 0 0 0 0 0 0 0 0 0 0 0 0
0 0 0 0 0 0 0 0 0 0 0 0 0 0 0 0 0 0 0 0 0 0 0 0 0 0 0 0 0 0 0 0 0 0 0 0 0 0 0 0 0 0 0
0 0 0 0 0 0 0 0 0 0 0 0 0 0 0 0 0 0 0 0 0 0 0 0 0 0 0 0 0 0 0 0 0 0 0 0 0 0 0 0 0 0 0
0 0 0 0 0 0 0 0 0 0 0 0 0 0 0 0 0 0 0 0 0 0 0 0 0 0 0 0 0 0 0 0 0 0 0 0 0 0 0 0 0 0 0
0 0 0 0 0 0 0 0 0 0 0 0 0 0 0 0 0 0 0 0 0 0 0 0 0 0 0 0 0 0 0 0 0 0 0 0 0 0 0 0 0 0 0
0 0 0 0 0 0 0 0 0 0 0 0 0 0 0 0 0 0 0 0 0 0 0 0 0 0 0 0 0 0 0 0 0 0 0 0 0 0 0 0 0 0 0
0 0 0 0 0 0 0 0 0 0 0 0 0 0 0 0 0 0 0 0 0 0 0 0 0 0 0 0 0 0 0 0 0 0 0 0 0 0 0 0 0 0 0
0 0 0 0 0 0 0 0 0 0 0 0 0 0 0 0 0 0 0 0 0 0 0 0 0 0 0 0 0 0 0 0 0 0 0 0 0 0 0 0 0 0 0
Wind_Speed_500mb
29 31 32 29 25 22 20 21 22 22 23 23 24 23 21 17 14 11 10 10 11 11 11 11 12 13 13 13 14 14 14 14 13 12 10 8 9 11 14 16 17 18 19
28 30 30 28 24 21 19 19 19 18 19 18 18 17 15 12 10 8 6 4 5 9 11 11 12 12 12 13 15 15 15 14 14 13 12 10 10 10 11 11 12 13 13
27 27 26 24 21 18 17 17 17 17 16 15 14 13 11 10 7 4 3 3 5 7 9 10 10 11 13 14 14 13 13 13 14 15 15 15 16 18 18 16 14 12 14
24 25 23 21 20 19 18 19 18 18 16 16 13 11 9 6 4 3 2 0 3 6 9 9 10 12 12 12 13 14 15 16 16 16 18 20 20 20 21 23 21 20 20
26 25 24 22 21 20 19 18 17 15 13 12 11 9 8 8 6 5 0 4 7 8 9 12 12 12 13 14 16 18 20 20 21 21 22 23 26 25 26 27 28 27 27
23 21 19 19 17 17 17 16 15 14 13 12 11 9 7 5 2 1 3 6 8 9 9 11 13 16 18 21 24 27 28 28 28 27 29 30 31 32 31 31 35 37 32
24 22 20 18 17 16 16 15 13 10 8 5 4 2 1 2 3 3 4 7 10 12 13 15 19 22 25 26 27 27 28 30 31 31 31 32 32 32 36 38 37 39 43
21 22 21 20 18 15 13 11 9 6 4 2 1 1 2 3 3 3 8 12 16 18 20 21 22 25 28 29 30 30 32 35 37 38 39 36 31 30 30 33 40 42 43
21 20 22 21 19 18 16 14 12 8 6 5 4 4 6 7 6 8 12 15 17 19 21 22 22 23 27 29 30 32 35 38 43 48 51 50 46 40 36 32 31 37 43
27 27 26 24 22 20 17 16 14 14 14 14 14 14 13 12 12 15 18 18 18 20 21 22 23 26 29 32 34 35 38 42 47 50 51 53 54 54 51 46 41 34 37
33 30 27 23 25 27 24 22 19 18 18 18 17 15 15 15 15 13 12 14 18 20 22 25 28 32 38 43 47 50 54 58 61 60 57 53 55 56 58 54 50 45 38
38 32 33 33 31 27 24 21 18 17 17 15 12 11 10 8 6 7 12 18 23 27 29 32 35 38 43 48 52 56 61 66 70 72 73 68 62 55 55 59 59 57 52
34 37 36 34 29 24 20 19 16 14 12 10 8 7 4 6 9 14 19 25 30 34 38 42 46 48 52 56 60 64 69 73 76 78 78 78 76 64 63 60 60 64 64
41 39 37 35 30 26 22 18 15 11 9 5 1 4 9 14 18 23 28 34 39 44 48 52 57 61 64 68 71 75 78 81 84 85 85 85 84 78 73 75 69 68 71
46 44 40 36 34 29 25 20 16 12 9 9 10 16 22 27 30 35 40 45 51 55 60 64 68 73 75 78 79 82 85 88 92 95 97 94 91 84 84 86 84 81 80
50 45 44 39 37 36 30 25 20 17 16 20 25 29 32 36 40 45 50 55 61 66 68 71 74 77 79 82 86 87 91 95 99 101 99 94 88 85 84 81 73 67 67
58 50 50 47 45 40 32 27 24 26 28 30 34 37 40 44 50 55 57 57 57 59 64 71 77 81 84 87 91 92 93 92 93 94 92 89 85 80 79 78 72 69 65
65 60 52 50 51 42 36 34 33 35 36 36 38 41 45 47 48 48 49 55 61 68 75 77 80 86 90 92 96 99 101 98 93 86 79 73 73 72 71 69 67 58 49
74 68 58 56 55 48 44 43 41 37 34 33 34 38 42 46 50 56 63 69 73 76 80 84 87 87 91 92 92 92 87 84 80 75 70 66 65 65 63 61 59 59 60
84 75 63 61 55 51 49 46 42 37 34 35 36 42 43 50 57 63 66 71 77 81 84 85 84 81 79 79 79 80 79 73 57 42 43 47 44 41 38 44 51 56 61
90 80 70 63 57 54 51 51 48 42 37 36 40 44 51 58 64 68 70 75 78 78 76 74 72 69 66 63 72 79 81 27 52 30 28 26 25 35 50 49 42 51 57
91 81 72 64 59 53 49 47 39 32 31 36 42 52 55 60 63 69 72 72 69 68 65 62 58 60 58 56 60 61 34 51 17 19 42 56 53 51 49 56 55 47 47
77 67 62 60 54 49 44 36 28 28 30 40 52 51 56 62 63 63 64 64 63 61 58 53 51 50 56 52 46 35 23 17 58 32 42 61 53 60 47 39 44 56 55
56 58 56 49 45 35 21 19 24 27 38 49 51 55 57 57 58 60 60 59 56 55 54 51 49 47 45 52 51 48 46 58 46 39 42 70 63 54 42 60 53 44 38
40 43 38 34 29 17 7 17 29 41 47 47 49 51 52 51 53 55 52 49 52 50 48 50 49 48 47 48 49 50 52 55 57 55 56 68 69 52 62 65 59 48 37
44 39 28 15 8 5 23 32 45 44 44 44 44 46 48 49 48 49 47 50 52 47 49 47 44 45 46 46 47 48 49 50 56 58 56 66 76 69 64 66 58 42 33
Wind_Direction_500mb
153 145 144 141 136 136 138 135 132 129 127 130 136 141 141 136 130 121 106 91 71 59 50 41 33 28 26 24 21 17 14 13 15 15 14 7 18 29 31 30 29 33 31
152 149 149 150 148 148 149 143 137 133 132 136 139 141 142 142 142 141 133 107 65 40 34 27 21 18 17 14 9 4 359 353 348 344 340 333 321 318 332 342 350 357 6
156 149 148 150 153 156 154 149 143 141 143 146 146 146 149 155 157 142 97 63 42 31 25 22 14 7 6 3 358 353 344 337 332 328 323 316 305 300 293 292 291 298 315
155 144 143 149 155 159 158 157 154 152 154 154 156 158 160 153 137 133 133 69 19 13 13 6 356 1 356 347 339 331 327 326 322 319 315 308 299 293 292 278 282 284 279
156 148 146 147 152 154 153 151 148 148 144 138 136 142 150 152 164 173 123 359 358 356 352 346 346 344 337 330 322 315 311 309 308 305 299 297 296 296 291 280 269 277 280
152 145 141 137 136 137 138 137 137 138 137 138 142 146 143 154 173 9 350 341 340 341 346 335 330 330 330 327 325 321 316 313 309 307 303 298 293 290 285 280 274 274 274
150 149 148 145 144 144 143 141 136 132 128 127 130 144 230 269 289 298 336 344 345 347 339 331 327 329 332 332 328 325 323 321 320 315 311 306 301 295 287 280 271 270 271
149 151 156 158 155 150 142 132 128 137 146 166 148 275 300 342 342 353 1 354 345 338 332 329 328 330 331 330 327 323 321 320 317 314 310 307 304 297 294 286 278 267 265
145 153 155 156 152 144 139 134 131 124 110 86 63 38 20 13 6 349 347 350 1 12 14 8 4 359 353 345 335 327 320 314 310 305 299 297 296 292 290 296 285 275 266
149 156 153 148 143 136 131 124 116 102 88 77 65 52 41 37 43 53 57 37 24 16 9 358 346 339 335 334 334 329 321 316 311 315 306 297 288 286 288 286 285 280 269
156 158 153 152 142 130 122 117 111 106 103 95 85 76 70 69 71 55 25 6 1 352 340 336 331 326 325 324 322 323 320 320 319 319 318 309 298 283 279 280 279 276 273
167 156 150 146 139 134 130 129 127 126 119 110 100 89 82 77 47 359 342 333 329 326 322 319 318 314 311 311 312 311 311 312 313 313 313 312 310 292 282 277 275 272 268
169 164 163 156 151 146 144 145 145 139 130 120 105 93 52 2 336 323 316 312 310 307 307 308 309 308 305 304 304 302 303 303 304 304 304 304 304 297 283 284 276 271 268
183 176 176 170 165 167 170 168 170 167 167 156 125 318 299 289 289 293 298 300 301 300 301 301 301 301 299 299 298 296 297 297 297 296 296 297 297 295 287 287 281 271 268
191 191 188 188 179 184 189 192 194 194 211 226 245 261 269 275 283 288 291 293 294 294 293 293 293 293 291 289 288 288 289 291 292 292 293 292 292 289 286 286 284 278 270
200 202 200 201 196 196 201 208 210 216 229 236 245 254 268 274 280 286 289 288 288 289 288 287 287 287 286 286 286 286 286 286 287 289 290 291 289 285 284 283 282 278 272
211 208 211 211 212 207 208 214 219 227 236 245 252 261 268 273 278 283 284 284 285 287 286 285 285 285 286 286 287 288 288 288 288 289 288 287 286 283 280 278 274 276 275
219 217 216 216 220 216 213 219 224 230 237 244 253 262 271 279 286 290 288 289 290 291 291 291 292 293 294 296 297 297 297 297 295 294 290 287 283 281 279 276 275 273 270
223 223 219 218 218 212 208 217 220 229 238 253 268 279 284 289 292 294 294 295 295 296 297 299 299 300 302 303 302 301 301 300 300 296 293 287 279 275 275 275 273 267 265
225 223 221 218 211 203 208 215 224 235 249 266 278 284 289 293 295 297 297 298 299 301 303 303 304 305 305 306 307 308 309 311 308 306 296 286 282 283 279 280 278 274 271
223 220 219 214 207 208 211 219 227 236 251 265 277 286 295 297 298 298 301 302 304 305 308 311 311 311 313 320 323 324 327 330 321 316 311 314 295 289 291 289 276 281 278
221 218 218 214 212 211 218 227 232 243 260 279 295 299 298 299 302 307 310 311 312 313 314 315 319 320 324 334 330 332 328 328 315 307 297 294 302 292 291 287 285 281 276
221 217 216 211 212 214 219 227 242 260 276 293 303 296 302 310 315 317 319 319 318 318 318 320 323 325 321 323 326 312 315 296 311 323 298 315 308 303 303 296 296 293 281
214 212 210 207 207 207 210 242 259 278 302 311 304 311 315 321 325 325 324 323 325 324 323 326 325 320 318 316 320 316 301 295 298 306 302 311 312 314 299 300 306 299 300
175 186 182 183 179 177 217 287 309 319 317 309 315 318 322 324 325 326 330 333 334 333 333 333 334 333 327 318 315 313 311 305 300 287 292 303 304 301 306 309 312 310 301
158 155 144 131 134 273 285 306 323 320 315 319 323 325 329 333 342 346 350 352 346 345 341 340 338 335 330 324 319 313 310 301 296 293 289 293 298 307 302 306 312 312 302
Wind_Speed_850mb
29 31 32 29 25 22 20 21 22 22 23 23 24 23 21 17 14 11 10 10 11 11 11 11 12 13 13 13 14 14 14 14 13 12 10 8 9 11 14 16 17 18 19
28 30 30 28 24 21 19 19 19 18 19 18 18 17 15 12 10 8 6 4 5 9 11 11 12 12 12 13 15 15 15 14 14 13 12 10 10 10 11 11 12 13 13
27 27 26 24 21 18 17 17 17 17 16 15 14 13 11 10 7 4 3 3 5 7 9 10 10 11 13 14 14 13 13 13 14 15 15 15 16 18 18 16 14 12 14
24 25 23 21 20 19 18 19 18 18 16 16 13 11 9 6 4 3 2 0 3 6 9 9 10 12 12 12 13 14 15 16 16 16 18 20 20 20 21 23 21 20 20
26 25 24 22 21 20 19 18 17 15 13 12 11 9 8 8 6 5 0 4 7 8 9 12 12 12 13 14 16 18 20 20 21 21 22 23 26 25 26 27 28 27 27
23 21 19 19 17 17 17 16 15 14 13 12 11 9 7 5 2 1 3 6 8 9 9 11 13 16 18 21 24 27 28 28 28 27 29 30 31 32 31 31 35 37 32
24 22 20 18 17 16 16 15 13 10 8 5 4 2 1 2 3 3 4 7 10 12 13 15 19 22 25 26 27 27 28 30 31 31 31 32 32 32 36 38 37 39 43
21 22 21 20 18 15 13 11 9 6 4 2 1 1 2 3 3 3 8 12 16 18 20 21 22 25 28 29 30 30 32 35 37 38 39 36 31 30 30 33 40 42 43
21 20 22 21 19 18 16 14 12 8 6 5 4 4 6 7 6 8 12 15 17 19 21 22 22 23 27 29 30 32 35 38 43 48 51 50 46 40 36 32 31 37 43
27 27 26 24 22 20 17 16 14 14 14 14 14 14 13 12 12 15 18 18 18 20 21 22 23 26 29 32 34 35 38 42 47 50 51 53 54 54 51 46 41 34 37
33 30 27 23 25 27 24 22 19 18 18 18 17 15 15 15 15 13 12 14 18 20 22 25 28 32 38 43 47 50 54 58 61 60 57 53 55 56 58 54 50 45 38
38 32 33 33 31 27 24 21 18 17 17 15 12 11 10 8 6 7 12 18 23 27 29 32 35 38 43 48 52 56 61 66 70 72 73 68 62 55 55 59 59 57 52
34 37 36 34 29 24 20 19 16 14 12 10 8 7 4 6 9 14 19 25 30 34 38 42 46 48 52 56 60 64 69 73 76 78 78 78 76 64 63 60 60 64 64
41 39 37 35 30 26 22 18 15 11 9 5 1 4 9 14 18 23 28 34 39 44 48 52 57 61 64 68 71 75 78 81 84 85 85 85 84 78 73 75 69 68 71
46 44 40 36 34 29 25 20 16 12 9 9 10 16 22 27 30 35 40 45 51 55 60 64 68 73 75 78 79 82 85 88 92 95 97 94 91 84 84 86 84 81 80
50 45 44 39 37 36 30 25 20 17 16 20 25 29 32 36 40 45 50 55 61 66 68 71 74 77 79 82 86 87 91 95 99 101 99 94 88 85 84 81 73 67 67
58 50 50 47 45 40 32 27 24 26 28 30 34 37 40 44 50 55 57 57 57 59 64 71 77 81 84 87 91 92 93 92 93 94 92 89 85 80 79 78 72 69 65
65 60 52 50 51 42 36 34 33 35 36 36 38 41 45 47 48 48 49 55 61 68 75 77 80 86 90 92 96 99 101 98 93 86 79 73 73 72 71 69 67 58 49
74 68 58 56 55 48 44 43 41 37 34 33 34 38 42 46 50 56 63 69 73 76 80 84 87 87 91 92 92 92 87 84 80 75 70 66 65 65 63 61 59 59 60
84 75 63 61 55 51 49 46 42 37 34 35 36 42 43 50 57 63 66 71 77 81 84 85 84 81 79 79 79 80 79 73 57 42 43 47 44 41 38 44 51 56 61
90 80 70 63 57 54 51 51 48 42 37 36 40 44 51 58 64 68 70 75 78 78 76 74 72 69 66 63 72 79 81 27 52 30 28 26 25 35 50 49 42 51 57
91 81 72 64 59 53 49 47 39 32 31 36 42 52 55 60 63 69 72 72 69 68 65 62 58 60 58 56 60 61 34 51 17 19 42 56 53 51 49 56 55 47 47
77 67 62 60 54 49 44 36 28 28 30 40 52 51 56 62 63 63 64 64 63 61 58 53 51 50 56 52 46 35 23 17 58 32 42 61 53 60 47 39 44 56 55
56 58 56 49 45 35 21 19 24 27 38 49 51 55 57 57 58 60 60 59 56 55 54 51 49 47 45 52 51 48 46 58 46 39 42 70 63 54 42 60 53 44 38
40 43 38 34 29 17 7 17 29 41 47 47 49 51 52 51 53 55 52 49 52 50 48 50 49 48 47 48 49 50 52 55 57 55 56 68 69 52 62 65 59 48 37
44 39 28 15 8 5 23 32 45 44 44 44 44 46 48 49 48 49 47 50 52 47 49 47 44 45 46 46 47 48 49 50 56 58 56 66 76 69 64 66 58 42 33
Wind_Direction_850mb
153 145 144 141 136 136 138 135 132 129 127 130 136 141 141 136 130 121 106 91 71 59 50 41 33 28 26 24 21 17 14 13 15 15 14 7 18 29 31 30 29 33 31
152 149 149 150 148 148 149 143 137 133 132 136 139 141 142 142 142 141 133 107 65 40 34 27 21 18 17 14 9 4 359 353 348 344 340 333 321 318 332 342 350 357 6
156 149 148 150 153 156 154 149 143 141 143 146 146 146 149 155 157 142 97 63 42 31 25 22 14 7 6 3 358 353 344 337 332 328 323 316 305 300 293 292 291 298 315
155 144 143 149 155 159 158 157 154 152 154 154 156 158 160 153 137 133 133 69 19 13 13 6 356 1 356 347 339 331 327 326 322 319 315 308 299 293 292 278 282 284 279
156 148 146 147 152 154 153 151 148 148 144 138 136 142 150 152 164 173 123 359 358 356 352 346 346 344 337 330 322 315 311 309 308 305 299 297 296 296 291 280 269 277 280
152 145 141 137 136 137 138 137 137 138 137 138 142 146 143 154 173 9 350 341 340 341 346 335 330 330 330 327 325 321 316 313 309 307 303 298 293 290 285 280 274 274 274
150 149 148 145 144 144 143 141 136 132 128 127 130 144 230 269 289 298 336 344 345 347 339 331 327 329 332 332 328 325 323 321 320 315 311 306 301 295 287 280 271 270 271
149 151 156 158 155 150 142 132 128 137 146 166 148 275 300 342 342 353 1 354 345 338 332 329 328 330 331 330 327 323 321 320 317 314 310 307 304 297 294 286 278 267 265
145 153 155 156 152 144 139 134 131 124 110 86 63 38 20 13 6 349 347 350 1 12 14 8 4 359 353 345 335 327 320 314 310 305 299 297 296 292 290 296 285 275 266
149 156 153 148 143 136 131 124 116 102 88 77 65 52 41 37 43 53 57 37 24 16 9 358 346 339 335 334 334 329 321 316 311 315 306 297 288 286 288 286 285 280 269
156 158 153 152 142 130 122 117 111 106 103 95 85 76 70 69 71 55 25 6 1 352 340 336 331 326 325 324 322 323 320 320 319 319 318 309 298 283 279 280 279 276 273
167 156 150 146 139 134 130 129 127 126 119 110 100 89 82 77 47 359 342 333 329 326 322 319 318 314 311 311 312 311 311 312 313 313 313 312 310 292 282 277 275 272 268
169 164 163 156 151 146 144 145 145 139 130 120 105 93 52 2 336 323 316 312 310 307 307 308 309 308 305 304 304 302 303 303 304 304 304 304 304 297 283 284 276 271 268
183 176 176 170 165 167 170 168 170 167 167 156 125 318 299 289 289 293 298 300 301 300 301 301 301 301 299 299 298 296 297 297 297 296 296 297 297 295 287 287 281 271 268
191 191 188 188 179 184 189 192 194 194 211 226 245 261 269 275 283 288 291 293 294 294 293 293 293 293 291 289 288 288 289 291 292 292 293 292 292 289 286 286 284 278 270
200 202 200 201 196 196 201 208 210 216 229 236 245 254 268 274 280 286 289 288 288 289 288 287 287 287 286 286 286 286 286 286 287 289 290 291 289 285 284 283 282 278 272
211 208 211 211 212 207 208 214 219 227 236 245 252 261 268 273 278 283 284 284 285 287 286 285 285 285 286 286 287 288 288 288 288 289 288 287 286 283 280 278 274 276 275
219 217 216 216 220 216 213 219 224 230 237 244 253 262 271 279 286 290 288 289 290 291 291 291 292 293 294 296 297 297 297 297 295 294 290 287 283 281 279 276 275 273 270
223 223 219 218 218 212 208 217 220 229 238 253 268 279 284 289 292 294 294 295 295 296 297 299 299 300 302 303 302 301 301 300 300 296 293 287 279 275 275 275 273 267 265
225 223 221 218 211 203 208 215 224 235 249 266 278 284 289 293 295 297 297 298 299 301 303 303 304 305 305 306 307 308 309 311 308 306 296 286 282 283 279 280 278 274 271
223 220 219 214 207 208 211 219 227 236 251 265 277 286 295 297 298 298 301 302 304 305 308 311 311 311 313 320 323 324 327 330 321 316 311 314 295 289 291 289 276 281 278
221 218 218 214 212 211 218 227 232 243 260 279 295 299 298 299 302 307 310 311 312 313 314 315 319 320 324 334 330 332 328 328 315 307 297 294 302 292 291 287 285 281 276
221 217 216 211 212 214 219 227 242 260 276 293 303 296 302 310 315 317 319 319 318 318 318 320 323 325 321 323 326 312 315 296 311 323 298 315 308 303 303 296 296 293 281
214 212 210 207 207 207 210 242 259 278 302 311 304 311 315 321 325 325 324 323 325 324 323 326 325 320 318 316 320 316 301 295 298 306 302 311 312 314 299 300 306 299 300
175 186 182 183 179 177 217 287 309 319 317 309 315 318 322 324 325 326 330 333 334 333 333 333 334 333 327 318 315 313 311 305 300 287 292 303 304 301 306 309 312 310 301
158 155 144 131 134 273 285 306 323 320 315 319 323 325 329 333 342 346 350 352 346 345 341 340 338 335 330 324 319 313 310 301 296 293 289 293 298 307 302 306 312 312 302